Location: Bogis-Bossey
(46.3500°N, 6.1667°E)
Time: 17:52:03
(UTC+00:00)

Nadezhda 4 Rocket - Pass Details

Date: 17 August 2022
Orbit: 950 x 991 km, 82.9° (Epoch: 30 September)

Event Time Altitude Azimuth Distance (km) Brightness Sun altitude
Exits shadow 23:38:38 58° 79° (E) 1,120 4.2 -30.5°
Drops below altitude 10° 23:44:26 10° 15° (NNE) 2,731 7.2 -30.5°
Sets 23:47:00 0° 12° (NNE) 3,689 8.2 -30.5°
